Printer-friendly version

IAU Minor Planet Center

Minor Planet Center

MPEC 2006-C34 : 2006 CY

The following Minor Planet Electronic Circular may be linked-to from your own Web pages, but must not otherwise be redistributed electronically.


Read MPEC 2006-C33 Read MPEC 2006-C35


M.P.E.C. 2006-C34                                Issued 2006 Feb. 4, 21:32 UT

     The Minor Planet Electronic Circulars contain information on unusual
         minor planets and routine data on comets.  They are published
   on behalf of Commission 20 of the International Astronomical Union by the
          Minor Planet Center, Smithsonian Astrophysical Observatory,
                          Cambridge, MA 02138, U.S.A.

                  Supported in part by the Brinson Foundation
                  Supported in part by the TABASGO Foundation
             Prepared using the Tamkin Foundation Computer Network

                              MPC@CFA.HARVARD.EDU
          URL http://cfa-www.harvard.edu/iau/mpc.html  ISSN 1523-6714

                                    2006 CY

Observations:
     K06C00Y* C2006 02 04.16126 07 09 15.92 +40 10 30.5          18.7 V EC034703
     K06C00Y  C2006 02 04.16909 07 09 18.29 +40 09 38.9                 EC034703
     K06C00Y  C2006 02 04.17689 07 09 20.66 +40 08 46.9                 EC034703
     K06C00Y  C2006 02 04.18475 07 09 23.12 +40 07 56.8          18.9 V EC034703
     K06C00Y  C2006 02 04.19348 07 09 25.77 +40 06 59.3          18.8 V EC034703
     K06C00Y  C2006 02 04.20067 07 09 28.04 +40 06 13.3          18.5 V EC034703
     K06C00Y  C2006 02 04.20792 07 09 30.20 +40 05 25.6          18.5 V EC034703
     K06C00Y  C2006 02 04.21516 07 09 32.43 +40 04 37.3          18.6 V EC034703
     K06C00Y 5C2006 02 04.22627 07 09 36.35 +40 03 22.1          19.0 R EC034673
     K06C00Y 5C2006 02 04.22917 07 09 37.20 +40 03 04.0                 EC034673
     K06C00Y 5C2006 02 04.23600 07 09 39.26 +40 02 19.8                 EC034673
     K06C00Y 5C2006 02 04.24236 07 09 41.17 +40 01 38.7                 EC034673
     K06C00Y  C2006 02 04.25702 07 09 45.20 +40 00 03.8          19.1 R EC034854
     K06C00Y  C2006 02 04.25984 07 09 46.15 +39 59 45.1          19.2 R EC034854
     K06C00Y  C2006 02 04.26079 07 09 46.40 +39 59 39.4          19.4 R EC034854
     K06C00Y  C2006 02 04.28150 07 09 51.90 +39 57 14.1          19.0 R EC034734
     K06C00Y  C2006 02 04.28383 07 09 52.61 +39 56 58.7          18.9 R EC034734
     K06C00Y  C2006 02 04.28616 07 09 53.34 +39 56 43.3          19.0 R EC034734
     K06C00Y  C2006 02 04.33064 07 10 07.50 +39 52 00.0          18.7 V EC034703
     K06C00Y  C2006 02 04.33116 07 10 07.68 +39 51 56.8          18.4 V EC034703
     K06C00Y  C2006 02 04.33169 07 10 07.86 +39 51 51.8          18.8 V EC034703
     K06C00Y  C2006 02 04.33221 07 10 07.96 +39 51 49.1          18.7 V EC034703
     K06C00Y  C2006 02 04.80510 07 12 40.17 +39 01 27.2          19.4 R EC034201
     K06C00Y  C2006 02 04.80703 07 12 40.74 +39 01 16.0          20.1 R EC034201
     K06C00Y  C2006 02 04.80921 07 12 41.33 +39 01 02.3          19.4 R EC034201
     K06C00Y  C2006 02 04.81096 07 12 41.83 +39 00 51.6          19.8 R EC034201

Observer details:
201 Jonathan B. Postel Observatory.  Observer V. Pozzoli.  0.40-m f/9
    Cassegrain + CCD.
673 Table Mountain Observatory, Wrightwood.  Observer J. Young.  0.6-m f/16
    Cassegrain + CCD.
703 Catalina Sky Survey.  Observer E. J. Christensen.  Measurers E. C. Beshore,
    E. J. Christensen, G. J. Garradd, A. D. Grauer, R. E. Hill, R. A. Kowalski,
    S. M. Larson, R. H. McNaught.  0.68-m Schmidt + CCD.
734 Farpoint Observatory.  Observer D. Tibbets.  0.7-m reflector + CCD.
854 Sabino Canyon Observatory, Tucson.  Observer J. E. McGaha.  0.36-m f/10.0
    Schmidt-Cassegrain + CCD.

Orbital elements:
2006 CY                                             PHA, Earth MOID = 0.0209 AU
Epoch 2006 Mar. 6.0 TT = JDT 2453800.5                  MPC
M  37.05205              (2000.0)            P               Q
n   0.41082060     Peri.   79.45976     +0.68589524     -0.72199578
a   1.7921234      Node   326.64515     +0.58608984     +0.62216146
e   0.5783332      Incl.    9.52024     +0.43133098     +0.30271639
P   2.40           H   21.4           G   0.15           U   8
Residuals in seconds of arc
060204 703  0.4+  0.8+    060204 673  0.5+  0.2-    060204 703  0.4-  0.7+
060204 703  0.2-  0.2+    060204 673  0.2+  0.1+    060204 703  0.1-  1.0+
060204 703  0.6-  1.0-    060204 673  0.1-  0.6+    060204 703  0.1+  0.5-
060204 703  0.2-  0.2+    060204 854  0.2+  0.0     060204 703  0.6-  0.2+
060204 703  0.5-  0.3-    060204 854  1.3+  0.2-    060204 201  0.1+  0.4-
060204 703  0.3+  0.6+    060204 854  0.8+  0.3+    060204 201  0.3+  0.3+
060204 703  0.4-  0.3+    060204 734  0.2+  0.4-    060204 201  0.2-  0.0
060204 703  0.2-  0.6-    060204 734  0.1+  0.4-    060204 201  0.2-  0.1+
060204 673  0.9+  1.1-    060204 734  0.2+  0.4-

Ephemeris:
2006 CY                  a,e,i = 1.79, 0.58, 10                  q = 0.7557
Date    TT    R. A. (2000) Decl.     Delta      r     Elong.  Phase     V
2006 02 04    07 08.33   +40 28.3    0.170    1.128   144.4    30.6    19.1
2006 02 05    07 13.61   +38 41.6    0.179    1.137   145.3    29.6    19.2
2006 02 06    07 18.25   +37 03.5    0.188    1.147   146.1    28.7    19.3
2006 02 07    07 22.37   +35 33.3    0.197    1.156   146.6    28.0    19.4
2006 02 08    07 26.07   +34 10.2    0.206    1.165   147.0    27.4    19.5
2006 02 09    07 29.41   +32 53.6    0.216    1.174   147.3    27.0    19.6
2006 02 10    07 32.45   +31 42.8    0.225    1.183   147.4    26.7    19.7
2006 02 11    07 35.24   +30 37.2    0.235    1.192   147.5    26.5    19.8
2006 02 12    07 37.81   +29 36.4    0.245    1.201   147.4    26.3    19.9
2006 02 13    07 40.21   +28 40.0    0.256    1.210   147.2    26.2    20.0
2006 02 14    07 42.44   +27 47.4    0.266    1.219   147.0    26.2    20.1
2006 02 15    07 44.55   +26 58.4    0.277    1.228   146.7    26.2    20.2
2006 02 16    07 46.53   +26 12.6    0.287    1.238   146.4    26.2    20.3
2006 02 17    07 48.42   +25 29.7    0.298    1.247   146.0    26.3    20.4
2006 02 18    07 50.21   +24 49.5    0.309    1.256   145.6    26.4    20.5
2006 02 19    07 51.93   +24 11.8    0.320    1.265   145.1    26.5    20.6
2006 02 20    07 53.58   +23 36.3    0.332    1.274   144.7    26.7    20.7
2006 02 21    07 55.18   +23 02.8    0.343    1.283   144.1    26.8    20.8
2006 02 22    07 56.72   +22 31.3    0.355    1.292   143.6    27.0    20.9
2006 02 23    07 58.22   +22 01.4    0.366    1.301   143.1    27.2    21.0
2006 02 24    07 59.68   +21 33.2    0.378    1.310   142.5    27.4    21.1

Timothy B. Spahr             (C) Copyright 2006 MPC           M.P.E.C. 2006-C34

Read MPEC 2006-C33 Read MPEC 2006-C35


Our Web policy. Index to the CBAT/MPC/ICQ pages.


Valid HTML 4.01!